Change the Weather History Date:

Friday, June 6, 2014

  Actual Average Record
Temperature  
Mean Temperature 52 °F 61 °F  
Max Temperature 63 °F 74 °F 99 °F (1988)
Min Temperature 40 °F 49 °F 30 °F (1912)
Degree Days  
Heating Degree Days 13 5  
Month to date heating degree days 29 34  
Since 1 June heating degree days 29 34  
Since 1 July heating degree days 8837 8365  
Cooling Degree Days 0 2  
Month to date cooling degree days 2 8  
Year to date cooling degree days 36 25  
Since 1 June cooling degree days 2 8  
Growing Degree Days 4 (Base 50)    
Moisture  
Dew Point 33 °F    
Average Humidity 51    
Maximum Humidity 70    
Minimum Humidity 32    
Precipitation  
Precipitation T in 0.08 in 2.30 in (1906)
Month to date precipitation 0.15 0.52  
Year to date precipitation 3.54 4.34  
Snow  
Snow 0.00 in 0.00 in 0.00 in (2002)
Month to date snowfall 0.0 0.0  
Since 1 June snowfall 0.0 0.0  
Since 1 July snowfall 30.4 34.8  
Snow Depth 0.00 in    
Sea Level Pressure  
Sea Level Pressure 30.14 in    
Wind  
Wind Speed 5 mph (WNW)    
Max Wind Speed 15 mph    
Max Gust Speed 23 mph    
Visibility 10 miles    
Events      
T = Trace of Precipitation, MM = Missing Value Source: NWS Daily Summary

Daily Weather History Graph

Daily Weather History Graph

Search for Another Location

Airport or City:

Trip Planner

Search our weather history database for the weather conditions in past years. The results will help you decide how hot, cold, wet, or windy it might be!

Date:

Astronomy

Jun. 06, 2014 Rise Set
Actual Time 5:07 AM MDT 9:03 PM MDT
Civil Twilight 4:26 AM MDT 9:44 PM MDT
Nautical Twilight 3:30 AM MDT 10:40 PM MDT
Astronomical Twilight 2:01 AM MDT 12:10 AM MDT
Moon 1:56 PM MDT (6/6) 1:31 AM MDT (6/6)
Length of Visible Light 17h 17m
Length of Day
15h 55m
First Quarter, 59% of the Moon is Illuminated
Jun 6
First Quarter
Jun 12
Full
Jun 19
Last Quarter
Jun 27
New
Jul 5
First Quarter

Hourly Weather History & Observations

Time (MDT) Temp. Windchill Dew Point Humidity Pressure Visibility Wind Dir Wind Speed Gust Speed Precip Events Conditions
12:53 AM 48.0 °F - 33.1 °F 56% 30.08 in 10.0 mi North 10.4 mph - N/A   Clear
1:53 AM 42.1 °F 37.7 °F 33.1 °F 70% 30.10 in 10.0 mi NW 6.9 mph - N/A   Clear
2:53 AM 43.0 °F 39.5 °F 33.1 °F 68% 30.11 in 10.0 mi North 5.8 mph - N/A   Clear
3:53 AM 42.1 °F 40.2 °F 34.0 °F 73% 30.12 in 10.0 mi WNW 3.5 mph - N/A   Clear
4:53 AM 43.0 °F - 34.0 °F 71% 30.14 in 10.0 mi Calm Calm - N/A   Clear
5:53 AM 44.1 °F - 35.1 °F 71% 30.15 in 10.0 mi Calm Calm - N/A   Partly Cloudy
6:53 AM 46.9 °F - 35.1 °F 63% 30.17 in 10.0 mi Calm Calm - N/A   Mostly Cloudy
7:53 AM 48.9 °F - 35.1 °F 59% 30.17 in 10.0 mi Calm Calm - N/A   Clear
8:53 AM 51.8 °F - 33.8 °F 50% 30.15 in 10.0 mi Variable 3.5 mph - N/A   Scattered Clouds
9:53 AM 53.6 °F - 32.0 °F 44% 30.15 in 10.0 mi East 5.8 mph - N/A   Scattered Clouds
10:53 AM 57.9 °F - 30.9 °F 36% 30.16 in 10.0 mi East 6.9 mph - N/A   Partly Cloudy
11:53 AM 57.0 °F - 28.9 °F 34% 30.16 in 10.0 mi Calm Calm - N/A   Clear
12:53 PM 59.0 °F - 30.9 °F 35% 30.14 in 10.0 mi Calm Calm - N/A   Partly Cloudy
1:53 PM 60.1 °F - 30.9 °F 33% 30.15 in 10.0 mi WSW 6.9 mph - N/A   Scattered Clouds
2:53 PM 60.8 °F - 32.0 °F 34% 30.13 in 10.0 mi WNW 10.4 mph - N/A   Overcast
3:53 PM 61.0 °F - 33.1 °F 35% 30.14 in 10.0 mi West 10.4 mph - 0.00 in   Overcast
4:53 PM 62.1 °F - 34.0 °F 35% 30.14 in 10.0 mi NW 12.7 mph 16.1 mph N/A   Overcast
5:53 PM 61.0 °F - 33.1 °F 35% 30.14 in 10.0 mi NW 9.2 mph - N/A   Scattered Clouds
6:53 PM 60.1 °F - 33.1 °F 36% 30.14 in 10.0 mi NW 8.1 mph - N/A   Scattered Clouds
7:53 PM 57.9 °F - 33.1 °F 39% 30.14 in 10.0 mi WNW 5.8 mph - N/A   Overcast
8:53 PM 55.9 °F - 34.0 °F 44% 30.15 in 10.0 mi WNW 3.5 mph - N/A   Scattered Clouds
9:53 PM 53.1 °F - 35.1 °F 50% 30.16 in 10.0 mi WSW 5.8 mph - N/A   Clear
10:53 PM 50.0 °F - 37.0 °F 61% 30.17 in 10.0 mi West 4.6 mph - N/A   Clear
11:53 PM 48.9 °F - 37.0 °F 64% 30.17 in 10.0 mi WSW 3.5 mph - N/A   Clear